Location: Newark
(35.6799°N, 139.7636°E)
Time: 10:56:13
(UTC+00:00)

Vanguard 3 - Pass Details

Date: 20 December 2019
Orbit: 508 x 3263 km, 33.3° (Epoch: 18 January)

Event Time Altitude Azimuth Distance (km) Brightness Sun altitude
Exits shadow 19:26:38 40° 164° (SSE) 952 7.6 -27.5°
Maximum altitude 19:26:48 40° 158° (SSE) 958 7.7 -27.5°
Drops below altitude 10° 19:32:04 10° 89° (E) 2,568 10.7 -26.4°
Sets 19:35:29 0° 83° (E) 3,914 11.8 -25.8°
